IFLY300 VOBL-VABB

Flight info

Callsign IFLY300
Flight time N/A
Altitude 38000
Route VAGPU7B VAGPU Q8 AGELA MOLGO2A
Aircraft A20N/M-SDE2E3FGHIRWXY/LB1

Departure

Time N/A
Airport Kempegowda International Airport Bengaluru (VOBL)

Arrival

Time 2026-05-05 19:05
Airport Chhatrapati Shivaji Maharaj International Airport (VABB)
Time Latitude Longitude Altitude Speed Heading
2026-05-05 18:39 17.93196 73.69517 27673 ft 427 kts 307°
2026-05-05 18:39 17.94989 73.67087 27064 ft 422 kts 307°
2026-05-05 18:39 17.96782 73.64655 26424 ft 418 kts 308°
2026-05-05 18:40 17.98561 73.62242 25822 ft 415 kts 308°
2026-05-05 18:40 18.00327 73.59846 25279 ft 411 kts 308°
2026-05-05 18:40 18.02051 73.57506 24699 ft 408 kts 308°
2026-05-05 18:40 18.03790 73.55146 24097 ft 406 kts 309°
2026-05-05 18:41 18.05510 73.52809 23526 ft 403 kts 309°
2026-05-05 18:41 18.07200 73.50514 22924 ft 398 kts 309°
2026-05-05 18:41 18.08888 73.48223 22317 ft 393 kts 309°
2026-05-05 18:41 18.10561 73.45952 21707 ft 390 kts 309°
2026-05-05 18:42 18.12221 73.43697 21079 ft 387 kts 309°
2026-05-05 18:42 18.13836 73.41505 20523 ft 382 kts 309°
2026-05-05 18:42 18.15666 73.39488 19948 ft 378 kts 319°
2026-05-05 18:42 18.17789 73.37869 19369 ft 375 kts 329°
2026-05-05 18:43 18.20111 73.36680 18773 ft 373 kts 337°
2026-05-05 18:43 18.22503 73.35626 18168 ft 372 kts 337°
2026-05-05 18:43 18.24889 73.34562 17542 ft 369 kts 337°
2026-05-05 18:43 18.27249 73.33505 16926 ft 367 kts 337°
2026-05-05 18:44 18.29588 73.32457 16310 ft 365 kts 337°
2026-05-05 18:44 18.31917 73.31414 15718 ft 363 kts 337°
2026-05-05 18:44 18.34211 73.30387 15146 ft 362 kts 337°
2026-05-05 18:44 18.36523 73.29352 14618 ft 359 kts 337°
2026-05-05 18:45 18.38829 73.28322 14020 ft 360 kts 337°
2026-05-05 18:45 18.41131 73.27292 13509 ft 357 kts 337°
2026-05-05 18:45 18.43396 73.26278 12983 ft 353 kts 337°
2026-05-05 18:45 18.45656 73.25266 12463 ft 350 kts 337°
2026-05-05 18:46 18.47901 73.24260 11947 ft 348 kts 337°
2026-05-05 18:46 18.50101 73.23274 11444 ft 346 kts 337°
2026-05-05 18:46 18.52307 73.22284 10922 ft 343 kts 337°
2026-05-05 18:46 18.54506 73.21298 10424 ft 342 kts 337°
2026-05-05 18:47 18.56679 73.20324 10146 ft 333 kts 337°
2026-05-05 18:47 18.58771 73.19386 10031 ft 319 kts 337°
2026-05-05 18:47 18.60791 73.18479 9738 ft 313 kts 337°
2026-05-05 18:47 18.62750 73.17601 9535 ft 304 kts 337°
2026-05-05 18:48 18.64700 73.16726 9262 ft 305 kts 337°
2026-05-05 18:48 18.66732 73.16039 8838 ft 307 kts 348°
2026-05-05 18:48 18.68823 73.15809 8690 ft 297 kts 359°
2026-05-05 18:48 18.70865 73.15779 8560 ft 298 kts 359°
2026-05-05 18:49 18.72940 73.15727 8421 ft 298 kts 358°
2026-05-05 18:49 18.75011 73.15668 8268 ft 296 kts 358°
2026-05-05 18:49 18.77072 73.15611 8126 ft 295 kts 358°
2026-05-05 18:49 18.79122 73.15555 7981 ft 294 kts 358°
2026-05-05 18:50 18.81149 73.15500 7828 ft 294 kts 358°
2026-05-05 18:50 18.83189 73.15446 7683 ft 292 kts 358°
2026-05-05 18:50 18.85232 73.15393 7540 ft 292 kts 358°
2026-05-05 18:50 18.87263 73.15340 7400 ft 291 kts 358°
2026-05-05 18:51 18.89255 73.15350 7248 ft 291 kts
2026-05-05 18:51 18.91154 73.16090 7104 ft 292 kts 34°
2026-05-05 18:51 18.92542 73.17602 6971 ft 292 kts 59°
2026-05-05 18:51 18.93182 73.19619 6835 ft 291 kts 84°
2026-05-05 18:52 18.93271 73.21759 6697 ft 291 kts 91°
2026-05-05 18:52 18.93247 73.23895 6567 ft 290 kts 91°
2026-05-05 18:52 18.93237 73.26001 6431 ft 290 kts 90°
2026-05-05 18:52 18.93269 73.28142 6285 ft 290 kts 89°
2026-05-05 18:53 18.93333 73.30282 6136 ft 289 kts 89°
2026-05-05 18:53 18.93414 73.32397 6008 ft 294 kts 88°
2026-05-05 18:53 18.93504 73.34575 5882 ft 294 kts 88°
2026-05-05 18:53 18.93594 73.36709 5733 ft 293 kts 88°
2026-05-05 18:54 18.93697 73.38871 5615 ft 292 kts 83°
2026-05-05 18:54 18.94329 73.40873 5519 ft 291 kts 57°
2026-05-05 18:54 18.95718 73.42406 5379 ft 286 kts 30°
2026-05-05 18:54 18.97554 73.43124 5204 ft 280 kts
2026-05-05 18:55 18.99444 73.42930 4873 ft 273 kts 337°
2026-05-05 18:55 19.00970 73.41862 4758 ft 264 kts 310°
2026-05-05 18:55 19.01833 73.40164 4634 ft 264 kts 283°
2026-05-05 18:55 19.01854 73.38258 4502 ft 262 kts 261°
2026-05-05 18:56 19.01424 73.36373 4385 ft 264 kts 255°
2026-05-05 18:56 19.00893 73.34507 4292 ft 263 kts 253°
2026-05-05 18:56 19.00352 73.32684 4207 ft 262 kts 253°
2026-05-05 18:56 18.99806 73.30848 4112 ft 261 kts 255°
2026-05-05 18:57 18.99465 73.28941 4019 ft 266 kts 267°
2026-05-05 18:57 18.99600 73.27002 3910 ft 268 kts 281°
2026-05-05 18:57 19.00123 73.25134 3764 ft 264 kts 290°
2026-05-05 18:57 19.00862 73.23349 3561 ft 263 kts 295°
2026-05-05 18:58 19.01692 73.21622 3431 ft 264 kts 297°
2026-05-05 18:58 19.02554 73.19906 3310 ft 263 kts 297°
2026-05-05 18:58 19.03417 73.18195 3189 ft 263 kts 297°
2026-05-05 18:58 19.04272 73.16489 3070 ft 262 kts 297°
2026-05-05 18:59 19.05116 73.14796 2954 ft 263 kts 297°
2026-05-05 18:59 19.05966 73.13083 2830 ft 261 kts 297°
2026-05-05 18:59 19.06793 73.11408 2787 ft 255 kts 297°
2026-05-05 18:59 19.07590 73.09792 2785 ft 240 kts 297°
2026-05-05 19:00 19.08337 73.08276 2780 ft 224 kts 296°
2026-05-05 19:00 19.08886 73.06806 2782 ft 206 kts 283°
2026-05-05 19:00 19.09093 73.05356 2782 ft 192 kts 273°
2026-05-05 19:00 19.09127 73.04034 2786 ft 170 kts 270°
2026-05-05 19:01 19.09111 73.02858 2717 ft 156 kts 269°
2026-05-05 19:01 19.09096 73.01732 2528 ft 150 kts 269°
2026-05-05 19:01 19.09079 73.00648 2344 ft 145 kts 269°
2026-05-05 19:01 19.09064 72.99595 2160 ft 141 kts 269°
2026-05-05 19:02 19.09049 72.98568 1997 ft 136 kts 269°
2026-05-05 19:02 19.09034 72.97601 1819 ft 130 kts 269°
2026-05-05 19:02 19.09020 72.96665 1654 ft 126 kts 269°
2026-05-05 19:02 19.09006 72.95719 1482 ft 128 kts 269°
2026-05-05 19:03 19.08992 72.94789 1328 ft 127 kts 269°
2026-05-05 19:03 19.08978 72.93855 1159 ft 127 kts 269°
2026-05-05 19:03 19.08965 72.92925 995 ft 124 kts 269°
2026-05-05 19:03 19.08951 72.91998 854 ft 127 kts 269°
2026-05-05 19:04 19.08937 72.91080 710 ft 127 kts 270°
2026-05-05 19:04 19.08923 72.90163 546 ft 123 kts 269°
2026-05-05 19:04 19.08910 72.89266 383 ft 124 kts 269°
2026-05-05 19:04 19.08897 72.88357 216 ft 121 kts 268°
2026-05-05 19:05 19.08883 72.87457 58 ft 124 kts 269°
2026-05-05 19:05 19.08871 72.86646 26 ft 88 kts 269°
2026-05-05 19:05 19.08865 72.86214 25 ft 30 kts 269°
2026-05-05 19:05 19.08864 72.86156 25 ft 1 kts 269°
2026-05-05 19:06 19.08864 72.86149 25 ft 1 kts 269°
2026-05-05 19:06 19.08864 72.86144 25 ft 1 kts 269°
2026-05-05 19:06 19.08864 72.86124 25 ft 9 kts 269°
2026-05-05 19:06 19.08862 72.86004 25 ft 23 kts 269°
2026-05-05 19:07 19.08858 72.85788 25 ft 30 kts 269°
2026-05-05 19:07 19.08896 72.85600 26 ft 23 kts 323°
2026-05-05 19:07 19.08878 72.87123 25 ft 0 kts 269°
2026-05-05 19:07 19.08878 72.87119 29 ft 2 kts 269°
2026-05-05 19:08 19.08878 72.87080 25 ft 8 kts 269°
2026-05-05 19:08 19.08876 72.86999 25 ft 13 kts 269°
2026-05-05 19:08 19.08875 72.86885 27 ft 17 kts 270°
2026-05-05 19:08 19.08936 72.86778 27 ft 18 kts 306°
2026-05-05 19:09 19.09033 72.86691 26 ft 16 kts 359°
2026-05-05 19:09 19.09065 72.86769 25 ft 13 kts 95°
2026-05-05 19:09 19.09057 72.86860 27 ft 12 kts 95°
2026-05-05 19:09 19.09049 72.86946 26 ft 11 kts 95°
2026-05-05 19:10 19.09042 72.87026 25 ft 11 kts 95°
2026-05-05 19:10 19.09035 72.87101 25 ft 10 kts 95°
2026-05-05 19:10 19.09029 72.87171 25 ft 9 kts 95°
2026-05-05 19:10 19.09034 72.87224 26 ft 7 kts 58°
2026-05-05 19:11 19.09052 72.87265 28 ft 6 kts 76°
2026-05-05 19:11 19.09060 72.87304 26 ft 5 kts 77°
2026-05-05 19:11 19.09061 72.87338 25 ft 4 kts 88°
2026-05-05 19:11 19.09061 72.87367 25 ft 4 kts 91°
2026-05-05 19:12 19.09060 72.87393 25 ft 3 kts 91°
2026-05-05 19:12 19.09061 72.87413 25 ft 2 kts 78°
2026-05-05 19:12 19.09065 72.87424 25 ft 1 kts 67°
2026-05-05 19:12 19.09067 72.87429 25 ft 1 kts 62°
2026-05-05 19:13 19.09089 72.87466 27 ft 16 kts 51°
2026-05-05 19:13 19.09183 72.87510 26 ft 0 kts 15°
2026-05-05 19:13 19.09185 72.87512 30 ft 0 kts 30°
2026-05-05 19:13 19.09187 72.87514 30 ft 0 kts 39°
2026-05-05 19:14 19.09188 72.87517 27 ft 0 kts 59°
2026-05-05 19:14 19.09189 72.87531 29 ft 5 kts 80°
2026-05-05 19:14 19.09205 72.87598 28 ft 13 kts 66°
2026-05-05 19:14 19.09258 72.87710 27 ft 20 kts 52°
2026-05-05 19:15 19.09385 72.87774 25 ft 23 kts 18°
2026-05-05 19:15 19.09479 72.87831 27 ft 9 kts 44°
2026-05-05 19:15 19.09547 72.87861 27 ft 12 kts
2026-05-05 19:15 19.09632 72.87833 29 ft 14 kts 329°
2026-05-05 19:16 19.09691 72.87741 25 ft 17 kts 305°
2026-05-05 19:16 19.09770 72.87635 25 ft 14 kts 312°
2026-05-05 19:16 19.09775 72.87629 25 ft 0 kts 312°